Preview of NWS' New Version of Forecast
This preview is not operational and should not be used for support decisions.

Regional Weather Roundup (RWR)

Issued by National Weather Service (NWS)

                            
000
ASUS43 KLSX 241357
RWRMO 

WEATHER SUMMARY FOR MISSOURI
NATIONAL WEATHER SERVICE SPRINGFIELD MO
900 AM CDT SUN MAR 24 2019

NOTE: "FAIR" INDICATES FEW OR NO CLOUDS BELOW 12,000 FEET WITH NO
       SIGNIFICANT WEATHER AND/OR OBSTRUCTIONS TO VISIBILITY.
       CURRENT SKY AND/OR WEATHER CONDITIONS ARE NOT AVAILABLE FOR
       CHILLICOTHE AND FARMINGTON.

MOZ001>031-035>038-043-044-053-054-241500-
...NORTHERN AND WESTERN MISSOURI...
  
CITY           SKY/WX    TMP DP  RH WIND       PRES   REMARKS
KANSAS CTY INT CLOUDY    51  48  89 SW7       29.95R                  
LEE'S SUMMIT   CLOUDY    50  46  86 S12       29.95S                  
ST JOSEPH        N/A    N/A N/A N/A MISG      29.94S                  
CHILLICOTHE      N/A     50  46  86 SE5       29.98R                  
     
$$
MOZ066>068-077>081-088>096-101>105-241500-
...SOUTHWEST MISSOURI...
  
CITY           SKY/WX    TMP DP  RH WIND       PRES   REMARKS
SPRINGFIELD    PTSUNNY   52  47  83 S13G21    30.01R                  
JOPLIN         PTSUNNY   56  53  90 S14       29.99S                  
BRANSON        PTSUNNY   48  48 100 SE7       30.04S FOG              
               
$$
MOZ032>034-039>042-045>050-055>058-069>072-241500-
...CENTRAL MISSOURI...  
  
CITY           SKY/WX    TMP DP  RH WIND       PRES   REMARKS
COLUMBIA       NOT AVBL                                               
JEFFERSON CITY PTSUNNY   54  45  71 S8        30.02S                  
ROLLA          MOSUNNY   50  43  77 S15G23    30.03R                  
SEDALIA        CLOUDY    52  48  86 S10       30.00R                  
WARRENSBURG    CLOUDY    50  45  81 SE8       29.97F                  
               
$$
MOZ051-052-059>065-241500-
...EAST CENTRAL MISSOURI...
  
CITY           SKY/WX    TMP DP  RH WIND       PRES   REMARKS
ST LOUIS INTL  LGT RAIN  48  44  86 SE10      30.06S                  
                   
$$
MOZ072>076-082>087-097>100-106>115-241500-
...SOUTH CENTRAL AND SOUTHEAST MISSOURI...
  
CITY           SKY/WX    TMP DP  RH WIND       PRES   REMARKS
CAPE GIRARDEAU CLOUDY    52  41  66 S7        30.11R                  
POPLAR BLUFF   FAIR      51  46  83 SE3       30.10R                  
WEST PLAINS    MOSUNNY   49  46  90 S7        30.07R                  
                                       
$$